This is the latest recevied weather packets stored in our database for station/object N3WMC. If no packets are shown the sender has not sent any weather packets the latest 10 day(s).
| Time | Temp. | Humidity | Pressure | Rain* | Wind** | Luminosity | Snow |
|---|---|---|---|---|---|---|---|
| 1777675538 | 8.89° C | 92% | 1012.3 hPa | 0 mm | - | 12 W/m² | - |
| 1777675235 | 8.89° C | 92% | 1012.3 hPa | 0 mm | - | 30 W/m² | - |
| 1777674932 | 8.89° C | 92% | 1012.3 hPa | 0 mm | - | 22 W/m² | - |
| 1777674628 | 8.89° C | 92% | 1012.2 hPa | 0 mm | - | 31 W/m² | - |
| 1777674325 | 8.89° C | 91% | 1012.4 hPa | 0 mm | - | 51 W/m² | - |
| 1777674022 | 8.33° C | 92% | 1012.4 hPa | 0 mm | - | 44 W/m² | - |
| 1777673718 | 8.89° C | 92% | 1012.5 hPa | 0 mm | - | 38 W/m² | - |
| 1777673416 | 8.89° C | 92% | 1012.4 hPa | 0 mm | - | 55 W/m² | - |
| 1777673112 | 8.89° C | 93% | 1012.4 hPa | 0 mm | - | 79 W/m² | - |
| 1777672809 | 8.33° C | 92% | 1012.3 hPa | 0 mm | - | 69 W/m² | - |
| 1777672500 | 8.33° C | 92% | 1012.6 hPa | 0 mm | - | 84 W/m² | - |
| 1777672195 | 8.33° C | 92% | 1012.5 hPa | 0 mm | - | 75 W/m² | - |
| 1777671891 | 8.33° C | 92% | 1012.2 hPa | 0 mm | - | 63 W/m² | - |
| 1777671587 | 7.78° C | 92% | 1012.3 hPa | 0 mm | - | 46 W/m² | - |
| 1777671284 | 7.78° C | 92% | 1012.6 hPa | 1.27 mm | - | 34 W/m² | - |
| 1777670979 | 7.78° C | 92% | 1012.4 hPa | 1.27 mm | - | 30 W/m² | - |
| 1777670676 | 7.78° C | 92% | 1012.4 hPa | 0 mm | - | 42 W/m² | - |
| 1777670373 | 7.78° C | 92% | 1012.5 hPa | 0 mm | - | 55 W/m² | - |
| 1777670071 | 7.78° C | 93% | 1012.6 hPa | 1.78 mm | - | 43 W/m² | - |
| 1777669768 | 7.78° C | 92% | 1012.9 hPa | 3.56 mm | - | 31 W/m² | - |
| 1777669464 | 8.33° C | 92% | 1012.9 hPa | 3.05 mm | - | 39 W/m² | - |
| 1777669161 | 8.33° C | 91% | 1012.8 hPa | 3.05 mm | - | 55 W/m² | - |
| 1777668858 | 8.33° C | 91% | 1012.6 hPa | 3.05 mm | - | 41 W/m² | - |
| 1777668555 | 8.33° C | 91% | 1012.8 hPa | 1.27 mm | - | 34 W/m² | - |
| 1777668251 | 8.33° C | 90% | 1012.8 hPa | 0 mm | - | 27 W/m² | - |
* Rain latest hour (hover to see other rain measurements)
** Current wind speed in m/s (hover to see current wind gust speed)